< < Back
Terminal Aerodrome Forecast


Current Version              Previous Versions:   1  2  3  4  5  6  7  8  9  

Terminal Aerodrome Forecast

900
FTUS44 KOHX 291100
TAFCSV
TAF
KCSV 291126Z 2912/3012 33004KT 6SM BR SCT007 BKN030
      TEMPO 2912/2914 3SM BR BKN007
     FM291600 34012KT P6SM SCT035=



Latest METAR

531
SAUS70 KWBC 300200 RRF
MTRCSV
METAR KCSV 300153Z AUTO 00000KT 10SM CLR 17/12 A3012 RMK AO2 SLP184
T01670122


USA.gov is the U.S. government's official web portal to all federal, state and local government web resources and services.